Location: Crouzit Bas
(45.2333°N, 2.2833°E)
Time: 23:21:12
(UTC+00:00)

Daily predictions for brighter satellites

Satellite Brightness Start Highest point End
(mag) Time Altitude Azimuth Time Altitude Azimuth Time Altitude Azimuth
CZ-4C R/B 4.2 16:43:25 10° N 16:47:25 51° WNW 16:51:09 10° SSW
Cosmos 2221 3.5 16:45:10 10° SE 16:48:41 26° E 16:52:14 10° NNE
NOSS 2-1 (E) 3.5 16:45:46 10° SSW 16:48:55 39° ESE 16:52:01 10° NE
ISS -3.2 16:48:05 10° W 16:51:25 52° NNW 16:54:46 10° NE
USA 81 4.5 16:48:15 10° SSW 16:53:29 70° W 16:58:46 10° N
CZ-2C R/B 3.9 16:50:37 10° NE 16:54:19 19° E 16:57:56 10° SE
USA 267 3.8 16:48:43 10° NE 16:54:59 50° NNW 17:01:14 10° W
Cosmos 1340 Rocket 4.3 16:53:20 10° NNE 16:56:08 18° ENE 16:58:54 10° ESE
Spot 1 4.4 16:51:46 10° NNE 16:56:15 80° WNW 17:01:00 10° SSW
AQUARIUS 4.3 16:53:46 10° SE 16:58:06 50° ENE 17:02:27 10° N
RESURS DK-1 4.4 16:55:36 10° WSW 16:58:56 23° NW 17:02:19 10° N
Cosmos 1271 Rocket 2.8 16:56:10 10° S 17:00:00 62° E 17:03:54 10° NNE
USA 306 2.9 16:55:48 10° SW 17:00:02 74° SE 17:04:01 12° ENE
Lacrosse 5 rocket 3.0 16:57:31 10° WNW 17:00:23 20° NNW 17:03:22 10° NNE
Nadezhda 4 Rocket 4.4 16:54:52 10° N 17:00:45 40° ENE 17:06:39 10° SE
SMAP 3.0 17:00:30 10° SSE 17:05:07 70° ENE 17:09:47 10° N
ATLAS 2AS CENTAUR R/B 4.0 16:59:46 10° WSW 17:07:07 41° NW 17:14:14 10° NNE
CZ-4B DEB 4.2 17:03:01 10° SSE 17:08:27 61° ENE 17:13:53 10° N
Cosmos 1408 Rocket 3.9 17:04:36 10° N 17:08:41 39° ENE 17:12:46 10° SE
Meteor 2-2 Rocket 4.4 17:04:18 10° S 17:10:13 61° E 17:16:09 10° NNE
Cosmos 1980 Rocket 4.0 17:09:27 10° NNE 17:11:32 12° NE 17:12:43 11° NE
Cosmos 1697 Rocket 4.0 17:07:42 10° N 17:11:36 19° NE 17:14:22 14° ENE
H-2A R/B 2.4 17:07:55 10° SE 17:12:54 44° ENE 17:17:47 10° N
Cosmos 1513 Rocket 4.4 17:08:56 10° S 17:14:58 72° E 17:21:06 10° NNE
USA 307 2.9 17:10:50 10° SW 17:15:07 85° SE 17:18:33 16° ENE
PAYLOAD B 4.3 17:10:14 10° SE 17:15:40 55° ENE 17:21:10 10° N
Cosmos 44 4.1 17:13:38 10° NNW 17:17:52 28° NE 17:20:56 15° E
ATLAS CENTAUR R/B 1.6 17:15:40 10° SW 17:19:42 70° NW 17:23:56 11° NNE
Cosmos 1777 Rocket 4.0 17:14:34 10° NNW 17:19:53 89° WSW 17:25:10 10° SSE
Cosmos 2034 Rocket 4.1 17:14:33 10° SSE 17:20:27 50° E 17:26:23 10° NNE
Cosmos 1939 Rocket 3.3 17:18:28 10° S 17:22:35 71° WSW 17:26:43 10° NNW
Lacrosse 5 1.9 17:17:59 10° NW 17:23:07 86° SW 17:28:13 10° SE
SKYMED 2 4.3 17:22:52 10° NNE 17:26:45 33° E 17:30:40 10° SSE
Cosmos 1898 Rocket 4.5 17:24:22 10° N 17:28:42 25° NE 17:31:16 17° E
NOSS 3-1 (C) 4.2 17:22:25 10° NNW 17:29:38 56° NE 17:38:05 10° ESE
Okean 3 Rocket 4.1 17:25:14 10° NNW 17:29:45 65° W 17:34:11 10° S
NOSS 2-1 (C) 3.3 17:26:32 10° SW 17:29:47 57° NW 17:32:11 16° NNE
Cosmos 1656 4.0 17:26:07 10° NNW 17:31:22 42° ENE 17:36:38 10° SE
MOS 1-B Rocket 4.1 17:26:14 10° NNE 17:31:48 52° E 17:37:51 10° S
CZ-2D R/B 3.1 17:30:19 10° SSE 17:34:09 74° ENE 17:38:00 10° N
GEOS 3 Rocket 3.6 17:29:27 10° SE 17:34:38 63° NE 17:39:47 10° NNW
Cosmos 1862 4.3 17:31:04 10° NNW 17:34:55 49° W 17:38:46 10° S
PSLV R/B 3.6 17:32:24 10° SSE 17:36:04 87° WSW 17:39:47 10° NNW
MOS 1-B 4.3 17:30:29 10° SSE 17:36:14 75° ENE 17:42:01 10° NNW
Cosmos 1461 4.0 17:32:13 10° WSW 17:36:14 40° NW 17:39:49 12° NNE
USA 308 3.0 17:32:59 10° WSW 17:37:14 70° NNW 17:39:45 23° NE
NOSS 2-1 (D) 3.7 17:35:52 10° WSW 17:39:03 45° NW 17:41:11 18° NNE
SL-08 RB Rocket 4.5 17:35:11 10° SE 17:39:14 30° ENE 17:43:17 10° N
Cosmos 1500 Rocket 3.7 17:37:53 10° N 17:42:16 52° ENE 17:46:35 10° SSE
SJ 16-02 1.7 17:40:18 10° NNW 17:44:40 67° WSW 17:48:59 10° S
Cosmos 1634 Rocket 4.4 17:43:08 10° SSE 17:48:56 40° E 17:54:47 10° NNE
Cosmos 1842 Rocket 3.7 17:47:18 10° SSW 17:51:43 77° W 17:56:12 10° N
Cosmos 1805 Rocket 3.9 17:48:28 10° N 17:52:34 39° ENE 17:56:37 10° SE
CZ-4B R/B 3.1 17:47:58 10° SSE 17:53:28 78° ENE 17:58:53 10° NNW
CZ-4C R/B 3.9 17:48:42 10° NNW 17:54:07 24° NNE 17:56:09 22° NE
TIMED 4.4 17:53:18 10° SSW 17:57:38 72° ESE 17:59:55 28° NNE
CZ-4 R/B 3.6 18:00:41 13° NNE 18:00:41 13° NNE 18:01:18 10° N
ATLAS 5 CENTAUR R/B 3.7 17:50:14 10° NW 17:57:40 25° N 17:58:53 23° NNE
Cosmos 1833 Rocket 3.3 17:52:44 10° SSE 17:57:44 34° ESE 17:58:47 32° E
YAOGAN 3 4.4 17:55:19 10° SSE 17:59:38 68° ENE 18:03:58 10° N
Cosmos 540 Rocket 4.5 17:59:12 10° SSE 18:02:28 26° ESE 18:02:28 26° ESE
Cosmos 1606 4.4 18:02:41 10° SW 18:06:06 33° WNW 18:09:34 10° N
Meteor 1-25 Rocket 4.0 18:02:43 10° N 18:08:17 74° ENE 18:13:51 10° SSE
USA 305 3.7 18:04:16 10° W 18:08:18 43° NNW 18:09:32 34° NNE
Cosmos 2026 Rocket 3.9 18:02:57 10° N 18:09:07 63° E 18:15:08 10° SSE
Cosmos 2195 Rocket 4.3 18:04:17 10° N 18:10:25 75° E 18:16:35 10° SSE
USA 276 3.4 18:08:11 10° WNW 18:10:26 31° NNW 18:10:26 31° NNW
Sich 1 4.4 18:07:29 10° N 18:09:17 23° NNE 18:09:17 23° NNE
Okean O Rocket 1.6 18:07:52 10° SSE 18:12:18 87° WSW 18:16:47 10° NNW
ARGOS 3.1 18:07:59 10° SSE 18:13:26 88° ENE 18:18:53 10° NNW
COSMO-SKYMED 1 2.6 18:11:30 16° N 18:14:57 78° WNW 18:19:16 10° SSW
Spot 2 4.5 18:11:28 14° SE 18:15:42 55° ENE 18:20:45 10° N
ATLAS CENTAUR R/B 2.7 18:07:50 10° SW 18:17:54 70° SE 18:19:17 48° ENE
ERBS 2.9 18:17:01 10° WSW 18:19:49 50° WNW 18:19:49 50° WNW
Cosmos 1782 4.3 18:17:03 10° S 18:18:52 25° SSE 18:18:52 25° SSE
Cosmos 1937 Rocket 3.8 18:16:27 10° N 18:21:06 45° NE 18:21:06 45° NE
Cosmos 2221 4.4 18:22:25 10° SW 18:26:08 29° WNW 18:29:52 10° NNW
Cosmos 1763 Rocket 3.2 18:22:28 10° SSW 18:27:31 81° ESE 18:28:44 53° NNE
ISS -1.8 18:25:48 10° WNW 18:27:49 23° NNW 18:27:49 23° NNW
Cosmos 1340 Rocket 4.2 18:28:56 10° NNW 18:32:44 40° W 18:36:33 10° SSW
Cosmos 1933 3.5 18:28:54 10° SSW 18:32:56 69° W 18:33:24 62° NW
YAOGAN 1 4.1 18:35:36 25° N 18:35:36 25° N 18:37:29 10° N
CZ-2C R/B 3.1 18:29:51 10° N 18:35:01 59° WNW 18:40:05 10° SSW
USA 267 4.3 18:35:05 27° NNE 18:37:09 32° N 18:42:48 10° WNW
IRAS Rocket 4.5 18:38:23 49° SE 18:38:23 49° SE 18:42:44 10° S
Meteor 2-21 4.3 18:31:56 10° N 18:38:05 89° WSW 18:44:09 10° S
Feng Yun 1-1 Rocket 4.3 18:32:34 10° SSE 18:38:30 85° WSW 18:44:27 10° NNW
Cosmos 2369 4.3 18:33:48 10° NNW 18:38:07 42° NNE 18:38:07 42° NNE
Landsat 5 4.1 18:38:53 39° NNW 18:40:11 56° WNW 18:44:13 10° SSW
USA 306 4.1 18:36:20 10° W 18:40:01 33° NNW 18:40:01 33° NNW
Lacrosse 5 rocket 3.7 18:38:23 10° NNW 18:39:29 13° NNW 18:39:29 13° NNW
Cosmos 990 Rocket 4.3 18:36:51 10° NNW 18:42:02 66° WSW 18:46:44 12° S
H-2A R/B 4.2 18:48:06 10° SSW 18:52:28 26° W 18:56:47 10° NW
USA 229 DEB 3.8 18:45:16 10° NW 18:52:39 84° NE 18:54:57 50° SE
USA 229 3.8 18:45:22 10° NW 18:52:45 84° NE 18:54:59 51° SE
Cosmos 1697 Rocket 2.6 18:50:42 10° NNW 18:56:10 84° NW 18:56:10 84° NW
SL-16 R/B 4.5 18:52:47 10° N 18:53:08 11° N 18:53:08 11° N
Cosmos 1980 Rocket 3.3 18:51:23 10° NNW 18:54:31 31° N 18:54:31 31° N
COSMOS 2455 4.0 18:51:30 10° S 18:54:37 30° S 18:54:37 30° S
COSMOS 2406 3.3 18:52:24 10° SSW 18:57:17 64° S 18:57:17 64° S
Cosmos 44 4.0 18:54:43 10° NW 18:59:17 46° WSW 18:59:26 46° WSW
ATLAS CENTAUR R/B 4.0 18:57:01 10° WNW 18:59:27 15° NNW 19:00:04 14° NNW
Cosmos 2082 Rocket 3.9 18:56:20 10° S 18:58:13 21° S 18:58:13 21° S
Cosmos 2142 Rocket 4.4 18:57:14 10° S 19:03:21 85° W 19:04:23 64° N
Cosmos 1898 Rocket 4.2 19:05:58 10° NNW 19:11:04 50° WSW 19:11:39 48° SW
NOSS 3-1 (A) 4.2 19:08:23 10° NW 19:15:58 72° WSW 19:19:12 42° SSE
Cosmos 2279 Rocket 4.4 19:21:47 10° SSW 19:27:55 59° WNW 19:28:11 59° WNW
Cosmos 1833 Rocket 4.0 19:36:20 10° SW 19:40:32 36° W 19:40:32 36° W
CZ-4C R/B 3.6 19:36:49 10° NW 19:41:21 43° NNW 19:41:21 43° NNW
